Time,TemperatureF,DewpointF,PressureIn,WindDirection,WindDirectionDegrees,WindSpeedMPH,WindSpeedGustMPH,Humidity,HourlyPrecipIn,Conditions,Clouds,dailyrainin,SolarRadiationWatts/m^2,SoftwareType,DateUTC
2013-02-24 00:01:00,24.0,19.0,-100.00,North,-999,-999.0,3.0,83,0.00,,,-99.99,0.000000,,2013-02-24 07:01:00,
2013-02-24 00:11:00,23.0,19.0,-100.00,North,-999,-999.0,4.0,84,0.00,,,-99.99,0.000000,,2013-02-24 07:11:00,
2013-02-24 00:21:00,23.0,20.0,-100.00,North,-999,-999.0,5.0,86,0.00,,,-99.99,0.000000,,2013-02-24 07:21:00,
2013-02-24 00:31:00,24.0,20.0,-100.00,North,-999,-999.0,5.0,86,0.00,,,-99.99,0.000000,,2013-02-24 07:31:00,
2013-02-24 00:41:00,24.0,20.0,-100.00,North,-999,-999.0,6.0,83,0.00,,,-99.99,0.000000,,2013-02-24 07:41:00,
2013-02-24 00:51:00,25.0,19.0,-100.00,North,-999,-999.0,6.0,80,0.00,,,-99.99,0.000000,,2013-02-24 07:51:00,
2013-02-24 01:01:00,25.0,19.0,-100.00,North,-999,-999.0,7.0,79,0.00,,,-99.99,0.000000,,2013-02-24 08:01:00,
2013-02-24 01:11:00,25.0,20.0,-100.00,North,-999,-999.0,8.0,82,0.00,,,-99.99,0.000000,,2013-02-24 08:11:00,
2013-02-24 01:21:00,24.0,21.0,-100.00,North,-999,-999.0,9.0,86,0.00,,,-99.99,0.000000,,2013-02-24 08:21:00,
2013-02-24 01:31:00,24.0,21.0,-100.00,North,-999,-999.0,8.0,88,0.00,,,-99.99,0.000000,,2013-02-24 08:31:00,
2013-02-24 01:41:00,24.0,21.0,-100.00,North,-999,-999.0,6.0,89,0.00,,,-99.99,0.000000,,2013-02-24 08:41:00,
2013-02-24 01:50:00,22.0,20.0,-100.00,North,-999,-999.0,6.0,92,0.00,,,-99.99,0.000000,,2013-02-24 08:50:00,
2013-02-24 01:53:00,23.0,21.0,-100.00,North,-999,-999.0,9.0,91,0.00,,,-99.99,0.000000,,2013-02-24 08:53:00,
2013-02-24 02:01:00,23.0,21.0,-100.00,North,-999,-999.0,6.0,92,0.00,,,-99.99,0.000000,,2013-02-24 09:01:00,
2013-02-24 02:11:00,22.0,20.0,-100.00,North,-999,-999.0,6.0,92,0.00,,,-99.99,0.000000,,2013-02-24 09:11:00,
2013-02-24 02:21:00,22.0,20.0,-100.00,North,-999,-999.0,6.0,92,0.00,,,-99.99,0.000000,,2013-02-24 09:21:00,
2013-02-24 02:31:00,22.0,20.0,-100.00,North,-999,-999.0,6.0,92,0.00,,,-99.99,0.000000,,2013-02-24 09:31:00,
2013-02-24 02:41:00,22.0,20.0,-100.00,North,-999,-999.0,6.0,92,0.00,,,-99.99,0.000000,,2013-02-24 09:41:00,
2013-02-24 03:22:00,23.0,19.0,-100.00,North,-999,-999.0,5.0,84,0.00,,,-99.99,0.000000,,2013-02-24 10:22:00,
2013-02-24 03:32:00,23.0,19.0,-100.00,North,-999,-999.0,7.0,84,0.00,,,-99.99,0.000000,,2013-02-24 10:32:00,
2013-02-24 03:42:00,23.0,19.0,-100.00,North,-999,-999.0,6.0,82,0.00,,,-99.99,0.000000,,2013-02-24 10:42:00,
2013-02-24 03:52:00,23.0,18.0,-100.00,North,-999,-999.0,5.0,81,0.00,,,-99.99,0.000000,,2013-02-24 10:52:00,
2013-02-24 04:01:00,23.0,18.0,-100.00,North,-999,-999.0,7.0,80,0.00,,,-99.99,0.000000,,2013-02-24 11:01:00,
2013-02-24 04:11:00,23.0,18.0,-100.00,North,-999,-999.0,6.0,80,0.00,,,-99.99,0.000000,,2013-02-24 11:11:00,
2013-02-24 04:21:00,23.0,18.0,-100.00,North,-999,-999.0,8.0,80,0.00,,,-99.99,0.000000,,2013-02-24 11:21:00,
2013-02-24 04:31:00,23.0,19.0,-100.00,North,-999,-999.0,7.0,82,0.00,,,-99.99,0.000000,,2013-02-24 11:31:00,
2013-02-24 04:41:00,24.0,19.0,-100.00,North,-999,-999.0,8.0,82,0.00,,,-99.99,0.000000,,2013-02-24 11:41:00,
2013-02-24 04:52:00,24.0,19.0,-100.00,North,-999,-999.0,8.0,82,0.00,,,-99.99,0.000000,,2013-02-24 11:52:00,
2013-02-24 05:01:00,24.0,19.0,-100.00,North,-999,-999.0,8.0,82,0.00,,,-99.99,0.000000,,2013-02-24 12:01:00,
2013-02-24 05:11:00,24.0,19.0,-100.00,North,-999,-999.0,8.0,82,0.00,,,-99.99,0.000000,,2013-02-24 12:11:00,
2013-02-24 05:21:00,24.0,19.0,-100.00,North,-999,-999.0,8.0,81,0.00,,,-99.99,0.000000,,2013-02-24 12:21:00,
2013-02-24 05:32:00,25.0,19.0,-100.00,North,-999,-999.0,9.0,77,0.00,,,-99.99,0.000000,,2013-02-24 12:32:00,
2013-02-24 05:44:00,25.0,19.0,-100.00,North,-999,-999.0,11.0,77,0.00,,,-99.99,0.000000,,2013-02-24 12:44:00,
2013-02-24 05:54:00,24.0,19.0,-100.00,North,-999,-999.0,9.0,80,0.00,,,-99.99,0.000000,,2013-02-24 12:54:00,
2013-02-24 06:05:00,24.0,19.0,-100.00,North,-999,-999.0,11.0,81,0.00,,,-99.99,0.000000,,2013-02-24 13:05:00,
2013-02-24 06:12:00,24.0,20.0,-100.00,North,-999,-999.0,9.0,82,0.00,,,-99.99,0.000000,,2013-02-24 13:12:00,
2013-02-24 06:22:00,24.0,19.0,-100.00,North,-999,-999.0,11.0,81,0.00,,,-99.99,0.000000,,2013-02-24 13:22:00,
2013-02-24 06:32:00,24.0,20.0,-100.00,North,-999,-999.0,11.0,83,0.00,,,-99.99,0.000000,,2013-02-24 13:32:00,
2013-02-24 06:42:00,24.0,20.0,-100.00,North,-999,-999.0,9.0,83,0.00,,,-99.99,0.000000,,2013-02-24 13:42:00,
2013-02-24 06:50:00,24.0,19.0,-100.00,North,-999,-999.0,7.0,82,0.00,,,-99.99,0.000000,,2013-02-24 13:50:00,
2013-02-24 06:51:00,24.0,19.0,-100.00,North,-999,-999.0,10.0,82,0.00,,,-99.99,0.000000,,2013-02-24 13:51:00,
2013-02-24 07:02:00,24.0,20.0,-100.00,North,-999,-999.0,9.0,82,0.00,,,-99.99,0.000000,,2013-02-24 14:02:00,
2013-02-24 07:12:00,24.0,19.0,-100.00,North,-999,-999.0,7.0,82,0.00,,,-99.99,0.000000,,2013-02-24 14:12:00,
2013-02-24 07:32:00,24.0,19.0,-100.00,North,-999,-999.0,7.0,82,0.00,,,-99.99,0.000000,,2013-02-24 14:32:00,
2013-02-24 07:43:00,24.0,19.0,-100.00,North,-999,-999.0,7.0,82,0.00,,,-99.99,0.000000,,2013-02-24 14:43:00,
2013-02-24 08:24:00,24.0,17.0,-100.00,North,-999,-999.0,14.0,74,0.00,,,-99.99,50.000000,,2013-02-24 15:24:00,
2013-02-24 08:32:00,24.0,17.0,-100.00,North,-999,-999.0,15.0,73,0.00,,,-99.99,74.000000,,2013-02-24 15:32:00,
2013-02-24 08:42:00,24.0,17.0,-100.00,North,-999,-999.0,14.0,72,0.00,,,-99.99,89.000000,,2013-02-24 15:42:00,
2013-02-24 08:52:00,25.0,16.0,-100.00,North,-999,-999.0,13.0,71,0.00,,,-99.99,116.000000,,2013-02-24 15:52:00,
2013-02-24 09:01:00,25.0,16.0,-100.00,North,-999,-999.0,12.0,69,0.00,,,-99.99,228.000000,,2013-02-24 16:01:00,
2013-02-24 09:11:00,26.0,16.0,-100.00,North,-999,-999.0,11.0,66,0.00,,,-99.99,266.000000,,2013-02-24 16:11:00,
2013-02-24 09:21:00,26.0,16.0,-100.00,North,-999,-999.0,14.0,66,0.00,,,-99.99,304.000000,,2013-02-24 16:21:00,
2013-02-24 09:31:00,26.0,16.0,-100.00,North,-999,-999.0,13.0,66,0.00,,,-99.99,299.000000,,2013-02-24 16:31:00,
2013-02-24 09:41:00,26.0,16.0,-100.00,North,-999,-999.0,13.0,64,0.00,,,-99.99,336.000000,,2013-02-24 16:41:00,
2013-02-24 09:51:00,25.0,16.0,-100.00,North,-999,-999.0,16.0,68,0.00,,,-99.99,283.000000,,2013-02-24 16:51:00,
2013-02-24 10:01:00,25.0,16.0,-100.00,North,-999,-999.0,16.0,67,0.00,,,-99.99,297.000000,,2013-02-24 17:01:00,
2013-02-24 10:11:00,26.0,16.0,-100.00,North,-999,-999.0,13.0,63,0.00,,,-99.99,366.000000,,2013-02-24 17:11:00,
2013-02-24 10:21:00,27.0,15.0,-100.00,North,-999,-999.0,13.0,59,0.00,,,-99.99,427.000000,,2013-02-24 17:21:00,
2013-02-24 10:31:00,27.0,14.0,-100.00,North,-999,-999.0,15.0,58,0.00,,,-99.99,526.000000,,2013-02-24 17:31:00,
2013-02-24 10:41:00,28.0,15.0,-100.00,North,-999,-999.0,16.0,56,0.00,,,-99.99,677.000000,,2013-02-24 17:41:00,
2013-02-24 10:52:00,28.0,15.0,-100.00,North,-999,-999.0,15.0,58,0.00,,,-99.99,643.000000,,2013-02-24 17:52:00,
2013-02-24 11:01:00,28.0,15.0,-100.00,North,-999,-999.0,17.0,58,0.00,,,-99.99,476.000000,,2013-02-24 18:01:00,
2013-02-24 11:11:00,27.0,14.0,-100.00,North,-999,-999.0,17.0,58,0.00,,,-99.99,466.000000,,2013-02-24 18:11:00,
2013-02-24 11:21:00,28.0,16.0,-100.00,North,-999,-999.0,17.0,60,0.00,,,-99.99,725.000000,,2013-02-24 18:21:00,
2013-02-24 11:31:00,29.0,16.0,-100.00,North,-999,-999.0,16.0,60,0.00,,,-99.99,764.000000,,2013-02-24 18:31:00,
2013-02-24 11:41:00,29.0,16.0,-100.00,North,-999,-999.0,17.0,59,0.00,,,-99.99,767.000000,,2013-02-24 18:41:00,
2013-02-24 11:50:00,29.0,15.0,-100.00,North,-999,-999.0,17.0,56,0.00,,,-99.99,808.000000,,2013-02-24 18:50:00,
2013-02-24 11:51:00,29.0,15.0,-100.00,North,-999,-999.0,16.0,56,0.00,,,-99.99,786.000000,,2013-02-24 18:51:00,
2013-02-24 12:01:00,29.0,15.0,-100.00,North,-999,-999.0,18.0,57,0.00,,,-99.99,806.000000,,2013-02-24 19:01:00,
2013-02-24 12:11:00,29.0,15.0,-100.00,North,-999,-999.0,17.0,56,0.00,,,-99.99,808.000000,,2013-02-24 19:11:00,
2013-02-24 12:21:00,29.0,15.0,-100.00,North,-999,-999.0,17.0,56,0.00,,,-99.99,808.000000,,2013-02-24 19:21:00,
2013-02-24 12:31:00,29.0,15.0,-100.00,North,-999,-999.0,17.0,56,0.00,,,-99.99,808.000000,,2013-02-24 19:31:00,
2013-02-24 12:41:00,29.0,15.0,-100.00,North,-999,-999.0,17.0,56,0.00,,,-99.99,808.000000,,2013-02-24 19:41:00,
2013-02-24 13:22:00,29.0,15.0,-100.00,North,-999,-999.0,21.0,56,0.00,,,-99.99,879.000000,,2013-02-24 20:22:00,
2013-02-24 13:32:00,29.0,15.0,-100.00,North,-999,-999.0,19.0,56,0.00,,,-99.99,825.000000,,2013-02-24 20:32:00,
2013-02-24 13:42:00,30.0,17.0,-100.00,North,-999,-999.0,19.0,56,0.00,,,-99.99,820.000000,,2013-02-24 20:42:00,
2013-02-24 13:52:00,31.0,18.0,-100.00,North,-999,-999.0,18.0,58,0.00,,,-99.99,810.000000,,2013-02-24 20:52:00,
2013-02-24 14:01:00,30.0,14.0,-100.00,North,-999,-999.0,19.0,51,0.00,,,-99.99,806.000000,,2013-02-24 21:01:00,
2013-02-24 14:11:00,31.0,17.0,-100.00,North,-999,-999.0,18.0,56,0.00,,,-99.99,777.000000,,2013-02-24 21:11:00,
2013-02-24 14:21:00,31.0,17.0,-100.00,North,-999,-999.0,19.0,56,0.00,,,-99.99,772.000000,,2013-02-24 21:21:00,
2013-02-24 14:31:00,31.0,16.0,-100.00,North,-999,-999.0,20.0,55,0.00,,,-99.99,753.000000,,2013-02-24 21:31:00,
2013-02-24 14:41:00,31.0,16.0,-100.00,North,-999,-999.0,20.0,55,0.00,,,-99.99,735.000000,,2013-02-24 21:41:00,
2013-02-24 14:52:00,31.0,17.0,-100.00,North,-999,-999.0,22.0,57,0.00,,,-99.99,727.000000,,2013-02-24 21:52:00,
2013-02-24 15:01:00,30.0,17.0,-100.00,North,-999,-999.0,20.0,57,0.00,,,-99.99,691.000000,,2013-02-24 22:01:00,
2013-02-24 15:11:00,31.0,16.0,-100.00,North,-999,-999.0,19.0,55,0.00,,,-99.99,669.000000,,2013-02-24 22:11:00,
2013-02-24 15:21:00,31.0,15.0,-100.00,North,-999,-999.0,19.0,52,0.00,,,-99.99,647.000000,,2013-02-24 22:21:00,
2013-02-24 15:31:00,31.0,16.0,-100.00,North,-999,-999.0,18.0,53,0.00,,,-99.99,606.000000,,2013-02-24 22:31:00,
2013-02-24 15:41:00,31.0,15.0,-100.00,North,-999,-999.0,17.0,50,0.00,,,-99.99,529.000000,,2013-02-24 22:41:00,
2013-02-24 15:51:00,32.0,15.0,-100.00,North,-999,-999.0,20.0,49,0.00,,,-99.99,523.000000,,2013-02-24 22:51:00,
2013-02-24 16:01:00,31.0,15.0,-100.00,North,-999,-999.0,19.0,52,0.00,,,-99.99,524.000000,,2013-02-24 23:01:00,
2013-02-24 16:11:00,31.0,17.0,-100.00,North,-999,-999.0,22.0,55,0.00,,,-99.99,491.000000,,2013-02-24 23:11:00,
2013-02-24 16:21:00,31.0,16.0,-100.00,North,-999,-999.0,19.0,54,0.00,,,-99.99,456.000000,,2013-02-24 23:21:00,
2013-02-24 16:31:00,31.0,16.0,-100.00,North,-999,-999.0,18.0,53,0.00,,,-99.99,424.000000,,2013-02-24 23:31:00,
2013-02-24 16:41:00,30.0,16.0,-100.00,North,-999,-999.0,18.0,56,0.00,,,-99.99,367.000000,,2013-02-24 23:41:00,
2013-02-24 16:50:00,30.0,16.0,-100.00,North,-999,-999.0,18.0,57,0.00,,,-99.99,268.000000,,2013-02-24 23:50:00,
2013-02-24 16:52:00,30.0,16.0,-100.00,North,-999,-999.0,19.0,55,0.00,,,-99.99,336.000000,,2013-02-24 23:52:00,
2013-02-24 17:01:00,29.0,16.0,-100.00,North,-999,-999.0,20.0,57,0.00,,,-99.99,94.000000,,2013-02-25 00:01:00,
2013-02-24 17:11:00,30.0,16.0,-100.00,North,-999,-999.0,18.0,57,0.00,,,-99.99,268.000000,,2013-02-25 00:11:00,
2013-02-24 17:21:00,30.0,16.0,-100.00,North,-999,-999.0,18.0,57,0.00,,,-99.99,268.000000,,2013-02-25 00:21:00,
2013-02-24 17:31:00,30.0,16.0,-100.00,North,-999,-999.0,18.0,57,0.00,,,-99.99,268.000000,,2013-02-25 00:31:00,
2013-02-24 17:41:00,30.0,16.0,-100.00,North,-999,-999.0,18.0,57,0.00,,,-99.99,268.000000,,2013-02-25 00:41:00,
2013-02-24 18:21:00,27.0,15.0,-100.00,North,-999,-999.0,14.0,58,0.00,,,-99.99,16.000000,,2013-02-25 01:21:00,
2013-02-24 18:32:00,27.0,14.0,-100.00,North,-999,-999.0,13.0,58,0.00,,,-99.99,10.000000,,2013-02-25 01:32:00,
2013-02-24 18:42:00,27.0,14.0,-100.00,North,-999,-999.0,14.0,59,0.00,,,-99.99,3.000000,,2013-02-25 01:42:00,
2013-02-24 18:52:00,26.0,15.0,-100.00,North,-999,-999.0,10.0,62,0.00,,,-99.99,1.000000,,2013-02-25 01:52:00,
2013-02-24 19:01:00,27.0,15.0,-100.00,North,-999,-999.0,13.0,60,0.00,,,-99.99,0.000000,,2013-02-25 02:01:00,
2013-02-24 19:11:00,26.0,14.0,-100.00,North,-999,-999.0,14.0,60,0.00,,,-99.99,0.000000,,2013-02-25 02:11:00,
2013-02-24 19:21:00,26.0,14.0,-100.00,North,-999,-999.0,11.0,60,0.00,,,-99.99,0.000000,,2013-02-25 02:21:00,
2013-02-24 19:31:00,26.0,14.0,-100.00,North,-999,-999.0,10.0,61,0.00,,,-99.99,0.000000,,2013-02-25 02:31:00,
2013-02-24 19:41:00,26.0,14.0,-100.00,North,-999,-999.0,10.0,61,0.00,,,-99.99,0.000000,,2013-02-25 02:41:00,
2013-02-24 19:52:00,26.0,14.0,-100.00,North,-999,-999.0,7.0,59,0.00,,,-99.99,0.000000,,2013-02-25 02:52:00,
2013-02-24 20:01:00,26.0,14.0,-100.00,North,-999,-999.0,7.0,60,0.00,,,-99.99,0.000000,,2013-02-25 03:01:00,
2013-02-24 20:11:00,25.0,14.0,-100.00,North,-999,-999.0,6.0,61,0.00,,,-99.99,0.000000,,2013-02-25 03:11:00,
2013-02-24 20:21:00,25.0,14.0,-100.00,North,-999,-999.0,7.0,61,0.00,,,-99.99,0.000000,,2013-02-25 03:21:00,
2013-02-24 20:31:00,25.0,14.0,-100.00,North,-999,-999.0,8.0,61,0.00,,,-99.99,0.000000,,2013-02-25 03:31:00,
2013-02-24 20:41:00,25.0,13.0,-100.00,North,-999,-999.0,6.0,61,0.00,,,-99.99,0.000000,,2013-02-25 03:41:00,
2013-02-24 20:51:00,24.0,13.0,-100.00,North,-999,-999.0,5.0,61,0.00,,,-99.99,0.000000,,2013-02-25 03:51:00,
2013-02-24 21:01:00,24.0,13.0,-100.00,North,-999,-999.0,4.0,62,0.00,,,-99.99,0.000000,,2013-02-25 04:01:00,
2013-02-24 21:11:00,22.0,12.0,-100.00,North,-999,-999.0,5.0,66,0.00,,,-99.99,0.000000,,2013-02-25 04:11:00,
2013-02-24 21:21:00,23.0,13.0,-100.00,North,-999,-999.0,5.0,64,0.00,,,-99.99,0.000000,,2013-02-25 04:21:00,
2013-02-24 21:31:00,23.0,13.0,-100.00,North,-999,-999.0,5.0,66,0.00,,,-99.99,0.000000,,2013-02-25 04:31:00,
2013-02-24 21:41:00,21.0,13.0,-100.00,North,-999,-999.0,5.0,72,0.00,,,-99.99,0.000000,,2013-02-25 04:41:00,
2013-02-24 21:50:00,20.0,14.0,-100.00,North,-999,-999.0,3.0,76,0.00,,,-99.99,0.000000,,2013-02-25 04:50:00,
2013-02-24 21:51:00,23.0,14.0,-100.00,North,-999,-999.0,4.0,68,0.00,,,-99.99,0.000000,,2013-02-25 04:51:00,
2013-02-24 22:01:00,22.0,13.0,-100.00,North,-999,-999.0,4.0,70,0.00,,,-99.99,0.000000,,2013-02-25 05:01:00,
2013-02-24 22:11:00,20.0,14.0,-100.00,North,-999,-999.0,3.0,76,0.00,,,-99.99,0.000000,,2013-02-25 05:11:00,
2013-02-24 22:21:00,20.0,14.0,-100.00,North,-999,-999.0,3.0,76,0.00,,,-99.99,0.000000,,2013-02-25 05:21:00,
2013-02-24 22:31:00,20.0,14.0,-100.00,North,-999,-999.0,3.0,76,0.00,,,-99.99,0.000000,,2013-02-25 05:31:00,
2013-02-24 22:41:00,20.0,14.0,-100.00,North,-999,-999.0,3.0,76,0.00,,,-99.99,0.000000,,2013-02-25 05:41:00,
2013-02-24 23:21:00,18.0,13.0,-100.00,North,-999,-999.0,5.0,80,0.00,,,-99.99,0.000000,,2013-02-25 06:21:00,
2013-02-24 23:32:00,20.0,13.0,-100.00,North,-999,-999.0,5.0,76,0.00,,,-99.99,0.000000,,2013-02-25 06:32:00,
2013-02-24 23:42:00,21.0,13.0,-100.00,North,-999,-999.0,8.0,72,0.00,,,-99.99,0.000000,,2013-02-25 06:42:00,
2013-02-24 23:52:00,21.0,13.0,-100.00,North,-999,-999.0,9.0,72,0.00,,,-99.99,0.000000,,2013-02-25 06:52:00,